| time (UTC) | temp C | wind direction | speed KPH | gust KPH | rain 1hr cm | rain 24hr cm | rain mn cm | humidity % | barometer mb |
| 20260505085036 | 10 | 358 | 6.4 | 6.4 | 0.00 | 0.00 | 0.00 | 79 | 1020.4 |
| 20260505084054 | 10 | 356 | 4.8 | 8.0 | 0.00 | 0.00 | 0.00 | 79 | 1020.2 |
| 20260505083032 | 10 | 353 | 4.8 | 8.0 | 0.00 | 0.00 | 0.00 | 77 | 1020.0 |
| 20260505082028 | 11 | 353 | 4.8 | 8.0 | 0.00 | 0.00 | 0.00 | 76 | 1020.0 |
| 20260505081027 | 11 | 334 | 4.8 | 8.0 | 0.00 | 0.00 | 0.00 | 75 | 1019.8 |
| 20260505080044 | 11 | 336 | 4.8 | 8.0 | 0.00 | 0.00 | 0.00 | 75 | 1019.6 |
| 20260505075042 | 11 | 341 | 4.8 | 8.0 | 0.00 | 0.00 | 0.00 | 74 | 1019.5 |
| 20260505074020 | 11 | 337 | 4.8 | 9.7 | 0.00 | 0.00 | 0.00 | 73 | 1019.3 |
| 20260505073017 | 12 | 324 | 6.4 | 9.7 | 0.00 | 0.00 | 0.00 | 72 | 1019.2 |
| 20260505072035 | 12 | 318 | 4.8 | 9.7 | 0.00 | 0.00 | 0.00 | 71 | 1018.8 |
| 20260505071033 | 12 | 314 | 6.4 | 11.3 | 0.00 | 0.00 | 0.00 | 69 | 1018.9 |
| 20260505070030 | 13 | 318 | 6.4 | 9.7 | 0.00 | 0.00 | 0.00 | 67 | 1018.7 |
| 20260505065028 | 13 | 312 | 6.4 | 12.9 | 0.00 | 0.00 | 0.00 | 66 | 1018.5 |
| 20260505064025 | 13 | 306 | 6.4 | 9.7 | 0.00 | 0.00 | 0.00 | 65 | 1018.6 |
| 20260505063023 | 14 | 304 | 4.8 | 14.5 | 0.00 | 0.00 | 0.00 | 62 | 1018.4 |
| 20260505062021 | 14 | 288 | 4.8 | 14.5 | 0.00 | 0.00 | 0.00 | 62 | 1018.2 |
| 20260505061018 | 15 | 289 | 6.4 | 11.3 | 0.00 | 0.00 | 0.00 | 59 | 1018.1 |
| 20260505060036 | 15 | 281 | 4.8 | 11.3 | 0.00 | 0.00 | 0.00 | 58 | 1018.0 |
| 20260505055034 | 15 | 285 | 4.8 | 12.9 | 0.00 | 0.00 | 0.00 | 58 | 1018.0 |
| 20260505054032 | 15 | 288 | 6.4 | 14.5 | 0.00 | 0.00 | 0.00 | 56 | 1017.9 |
| 20260505053029 | 16 | 279 | 4.8 | 9.7 | 0.00 | 0.00 | 0.00 | 55 | 1017.6 |
| 20260505052027 | 15 | 271 | 6.4 | 12.9 | 0.00 | 0.00 | 0.00 | 56 | 1017.5 |
| 20260505051024 | 16 | 250 | 4.8 | 8.0 | 0.00 | 0.00 | 0.00 | 54 | 1017.5 |
| 20260505041030 | 16 | 297 | 8.0 | 14.5 | 0.00 | 0.05 | 0.00 | 55 | 1016.9 |
| 20260505040027 | 16 | 297 | 6.4 | 16.1 | 0.00 | 0.05 | 0.00 | 56 | 1016.8 |
| 20260505035025 | 16 | 302 | 6.4 | 19.3 | 0.00 | 0.05 | 0.00 | 56 | 1017.0 |
| 20260505034104 | 16 | 308 | 8.0 | 19.3 | 0.00 | 0.05 | 0.00 | 56 | 1017.0 |
| 20260505033020 | 15 | 298 | 8.0 | 22.5 | 0.00 | 0.05 | 0.00 | 54 | 1017.0 |
| 20260505032040 | 16 | 313 | 6.4 | 14.5 | 0.00 | 0.05 | 0.00 | 56 | 1017.0 |
| 20260505031037 | 16 | 309 | 8.0 | 20.9 | 0.00 | 0.05 | 0.00 | 55 | 1017.1 |
| 20260505030054 | 15 | 305 | 8.0 | 17.7 | 0.00 | 0.05 | 0.00 | 57 | 1017.3 |
| 20260505025032 | 15 | 295 | 8.0 | 19.3 | 0.00 | 0.05 | 0.00 | 55 | 1017.3 |
| 20260505024029 | 16 | 286 | 4.8 | 14.5 | 0.00 | 0.05 | 0.00 | 56 | 1017.7 |
| 20260505023027 | 15 | 284 | 8.0 | 16.1 | 0.00 | 0.05 | 0.00 | 56 | 1017.7 |
| 20260505022024 | 15 | 285 | 8.0 | 22.5 | 0.00 | 0.05 | 0.00 | 56 | 1017.9 |
| 20260505021022 | 15 | 292 | 6.4 | 14.5 | 0.00 | 0.05 | 0.00 | 60 | 1018.1 |
| 20260505020041 | 15 | 291 | 6.4 | 14.5 | 0.00 | 0.05 | 0.00 | 63 | 1018.3 |
| 20260505015036 | 15 | 294 | 4.8 | 9.7 | 0.00 | 0.05 | 0.00 | 64 | 1018.3 |
| 20260505014034 | 15 | 296 | 6.4 | 11.3 | 0.00 | 0.05 | 0.00 | 65 | 1018.2 |
| 20260505013033 | 14 | 309 | 8.0 | 22.5 | 0.00 | 0.05 | 0.00 | 67 | 1018.2 |
| 20260505012030 | 13 | 299 | 6.4 | 12.9 | 0.00 | 0.05 | 0.00 | 68 | 1018.4 |
| 20260505011028 | 13 | 308 | 6.4 | 16.1 | 0.00 | 0.05 | 0.00 | 68 | 1018.5 |
| 20260505010026 | 13 | 310 | 6.4 | 19.3 | 0.00 | 0.05 | 0.00 | 71 | 1018.6 |
| 20260505005022 | 13 | 303 | 6.4 | 11.3 | 0.00 | 0.05 | 0.00 | 71 | 1019.0 |
| 20260505004020 | 13 | 288 | 4.8 | 9.7 | 0.00 | 0.05 | 0.00 | 73 | 1019.1 |
| 20260505003018 | 13 | 302 | 6.4 | 11.3 | 0.00 | 0.05 | 0.00 | 73 | 1019.0 |
| 20260505002057 | 13 | 302 | 6.4 | 12.9 | 0.00 | 0.05 | 0.00 | 73 | 1018.9 |
| 20260505001034 | 13 | 304 | 8.0 | 12.9 | 0.00 | 0.05 | 0.00 | 74 | 1018.9 |
| 20260505000032 | 12 | 313 | 6.4 | 9.7 | 0.00 | 0.05 | 0.00 | 75 | 1019.0 |
| 20260504235029 | 12 | 314 | 8.0 | 14.5 | 0.00 | 0.05 | 0.00 | 77 | 1019.2 |
| 20260504234026 | 12 | 306 | 6.4 | 14.5 | 0.00 | 0.05 | 0.00 | 77 | 1019.1 |
| 20260504233044 | 12 | 314 | 6.4 | 12.9 | 0.00 | 0.08 | 0.00 | 78 | 1019.0 |
| 20260504232042 | 12 | 309 | 8.0 | 12.9 | 0.00 | 0.10 | 0.00 | 79 | 1018.9 |
| 20260504231020 | 11 | 323 | 6.4 | 11.3 | 0.00 | 0.10 | 0.00 | 81 | 1018.7 |
| 20260504230017 | 11 | 325 | 8.0 | 14.5 | 0.00 | 0.10 | 0.00 | 83 | 1018.5 |
| 20260504225055 | 11 | 315 | 8.0 | 14.5 | 0.00 | 0.10 | 0.00 | 84 | 1018.8 |
| 20260504224033 | 11 | 321 | 6.4 | 12.9 | 0.00 | 0.10 | 0.00 | 83 | 1018.6 |
| 20260504223030 | 10 | 324 | 8.0 | 12.9 | 0.00 | 0.10 | 0.00 | 86 | 1018.7 |
| 20260504222028 | 10 | 332 | 6.4 | 11.3 | 0.00 | 0.10 | 0.00 | 88 | 1018.6 |
| 20260504221025 | 10 | 322 | 8.0 | 14.5 | 0.00 | 0.10 | 0.00 | 89 | 1018.1 |
| 20260504220023 | 10 | 322 | 6.4 | 12.9 | 0.00 | 0.10 | 0.00 | 89 | 1018.1 |
| 20260504215021 | 9 | 320 | 6.4 | 11.3 | 0.00 | 0.13 | 0.00 | 89 | 1018.0 |
| 20260504214018 | 9 | 331 | 6.4 | 9.7 | 0.00 | 0.13 | 0.00 | 90 | 1017.8 |
| 20260504213057 | 9 | 329 | 6.4 | 12.9 | 0.00 | 0.13 | 0.00 | 90 | 1017.4 |
| 20260504212116 | 9 | 338 | 4.8 | 8.0 | 0.00 | 0.13 | 0.00 | 90 | 1017.3 |
| 20260504211032 | 9 | 327 | 6.4 | 9.7 | 0.00 | 0.13 | 0.00 | 90 | 1017.2 |
| 20260504210109 | 9 | 313 | 6.4 | 11.3 | 0.00 | 0.13 | 0.00 | 89 | 1017.1 |
| 20260504205027 | 9 | 317 | 8.0 | 14.5 | 0.00 | 0.13 | 0.00 | 89 | 1016.8 |
| 20260504204024 | 9 | 323 | 8.0 | 11.3 | 0.00 | 0.13 | 0.00 | 90 | 1016.7 |
| 20260504203022 | 9 | 325 | 6.4 | 11.3 | 0.00 | 0.13 | 0.00 | 90 | 1016.6 |
| 20260504202020 | 9 | 322 | 8.0 | 16.1 | 0.00 | 0.13 | 0.00 | 90 | 1016.5 |
| 20260504201018 | 8 | 336 | 6.4 | 12.9 | 0.00 | 0.13 | 0.00 | 91 | 1016.2 |
| 20260504200035 | 8 | 335 | 6.4 | 16.1 | 0.00 | 0.13 | 0.00 | 91 | 1015.8 |
| 20260504195033 | 8 | 340 | 6.4 | 11.3 | 0.00 | 0.13 | 0.00 | 91 | 1015.6 |
| 20260504194030 | 8 | 349 | 4.8 | 9.7 | 0.00 | 0.13 | 0.00 | 91 | 1015.6 |
| 20260504193028 | 8 | 344 | 4.8 | 9.7 | 0.00 | 0.13 | 0.00 | 90 | 1015.5 |
| 20260504192047 | 8 | 343 | 6.4 | 9.7 | 0.00 | 0.13 | 0.00 | 90 | 1015.5 |
| 20260504191023 | 9 | 344 | 6.4 | 11.3 | 0.00 | 0.13 | 0.00 | 90 | 1015.6 |
| 20260504190020 | 9 | 337 | 6.4 | 9.7 | 0.00 | 0.13 | 0.00 | 89 | 1015.5 |
| 20260504185019 | 9 | 338 | 6.4 | 8.0 | 0.00 | 0.13 | 0.00 | 88 | 1015.4 |
| 20260504184036 | 9 | 329 | 6.4 | 11.3 | 0.00 | 0.13 | 0.00 | 88 | 1015.4 |
| 20260504183056 | 10 | 341 | 6.4 | 9.7 | 0.00 | 0.13 | 0.00 | 88 | 1015.4 |
| 20260504182031 | 10 | 339 | 6.4 | 11.3 | 0.00 | 0.13 | 0.00 | 88 | 1015.2 |
| 20260504181029 | 9 | 335 | 6.4 | 14.5 | 0.00 | 0.13 | 0.00 | 88 | 1015.2 |
| 20260504180027 | 9 | 342 | 6.4 | 9.7 | 0.00 | 0.13 | 0.00 | 89 | 1015.1 |
| 20260504175024 | 9 | 331 | 6.4 | 9.7 | 0.00 | 0.13 | 0.00 | 88 | 1015.0 |
| 20260504174021 | 9 | 331 | 8.0 | 12.9 | 0.00 | 0.13 | 0.00 | 89 | 1015.0 |
| 20260504173020 | 9 | 340 | 6.4 | 11.3 | 0.00 | 0.13 | 0.00 | 90 | 1014.9 |
| 20260504172016 | 8 | 340 | 4.8 | 9.7 | 0.00 | 0.13 | 0.00 | 91 | 1014.8 |
| 20260504171035 | 9 | 336 | 6.4 | 12.9 | 0.00 | 0.13 | 0.00 | 91 | 1014.9 |
| 20260504151026 | 8 | 346 | 6.4 | 9.7 | 0.00 | 0.15 | 0.00 | 96 | 1015.8 |
| 20260504141033 | 8 | 344 | 4.8 | 6.4 | 0.00 | 0.15 | 0.00 | 98 | 1015.9 |